Temp
84 87 83 84 84 83 83 83 83 83 83 83 82 83 83 83 83 83 83 83 84 84 83 83 84 84 84 84 84 84 84 83 83 83 83 82 82 82 82 82 83 88 82
88 89 82 83 84 83 83 83 83 83 83 83 83 83 83 83 83 83 83 84 84 84 84 84 84 83 83 84 84 84 83 83 83 83 83 83 83 83 82 82 84 86 82
88 89 88 83 84 84 83 83 83 83 83 83 83 83 83 83 83 83 84 84 84 83 84 84 84 83 83 84 84 84 83 83 83 83 84 89 88 83 83 82 83 82 82
89 90 90 82 83 83 83 83 83 83 83 83 83 83 83 83 83 83 83 82 82 83 84 84 84 84 84 84 84 83 83 83 83 83 89 90 90 83 83 82 82 82 81
88 91 89 83 84 83 82 82 82 83 83 83 83 83 83 83 83 83 83 82 84 83 84 84 84 84 84 83 83 83 83 83 82 84 87 88 90 85 82 82 82 82 82
88 91 86 83 84 83 83 82 83 83 83 83 83 83 83 83 83 83 83 84 83 83 84 84 84 84 83 83 83 83 83 83 82 88 87 86 88 83 82 82 82 82 81
86 89 88 83 83 83 83 83 83 83 83 83 83 83 83 83 83 83 83 83 83 83 84 84 84 84 84 83 83 83 83 83 88 88 86 87 87 82 82 82 82 81 81
86 88 89 83 83 83 83 83 83 83 83 83 83 83 83 83 83 83 83 83 82 83 83 84 84 83 83 83 83 83 83 83 86 87 87 87 81 81 82 82 82 81 81
87 87 86 87 85 83 83 83 83 83 83 83 83 83 83 83 83 83 83 83 83 83 83 83 83 83 83 83 82 82 83 82 88 90 89 89 79 81 82 82 82 82 81
86 86 86 86 87 84 86 83 83 83 83 83 83 83 83 83 83 83 82 82 82 82 83 83 83 83 83 83 82 82 83 82 92 90 90 91 79 81 82 82 82 81 81
83 85 86 86 85 84 85 85 83 83 83 83 84 84 84 89 88 87 85 82 83 82 83 83 83 83 82 82 82 82 83 93 93 91 92 80 80 81 82 82 82 81 81
82 83 86 86 85 85 86 85 85 86 88 88 87 86 88 87 86 87 85 82 82 83 83 83 83 83 83 90 89 84 91 91 91 91 91 80 80 81 82 82 81 81 81
83 84 84 84 84 85 85 84 86 86 86 86 84 85 85 85 84 86 86 86 85 83 85 85 86 88 88 87 88 88 88 89 92 91 89 80 80 81 82 82 81 81 81
82 83 84 84 82 83 83 83 82 85 85 85 86 83 83 84 83 83 83 84 84 82 83 82 87 86 85 84 86 86 87 89 91 91 90 80 80 81 82 82 81 81 81
82 83 83 82 81 82 80 82 80 83 84 84 84 83 84 83 79 83 80 84 84 85 81 81 82 85 84 84 84 84 86 88 88 90 91 81 80 80 82 82 82 81 81
83 83 83 81 81 81 81 79 80 82 83 82 84 84 80 77 80 80 82 84 84 85 85 83 82 82 84 86 84 85 85 87 88 88 91 90 81 81 81 82 82 82 82
84 84 82 81 82 80 80 81 81 82 82 83 83 81 80 78 79 82 83 83 84 83 81 82 82 83 84 85 83 84 86 85 87 87 89 90 91 81 81 81 82 81 81
85 82 82 84 82 81 81 82 83 83 83 83 83 82 79 77 81 81 83 84 85 84 82 82 79 83 83 83 83 84 85 85 85 85 88 89 91 92 85 81 81 81 82
84 82 81 81 81 81 80 82 82 81 83 84 84 81 79 81 81 82 84 85 82 83 82 83 79 79 82 82 82 79 84 84 84 87 86 87 88 89 91 85 80 80 81
84 83 82 82 81 80 82 80 82 83 83 85 84 84 81 80 80 81 83 82 81 83 83 81 80 82 80 80 80 79 82 85 84 84 86 89 89 88 89 87 89 88 81
84 82 81 80 80 81 81 80 80 80 82 83 85 83 81 82 81 80 82 81 80 79 80 80 78 78 80 81 77 81 84 84 84 86 87 87 87 88 87 87 86 86 86
84 82 81 80 80 80 82 82 83 83 85 83 84 82 83 82 81 80 80 80 80 80 78 78 78 77 78 78 79 77 78 82 84 87 86 84 85 87 86 85 84 83 83
84 82 82 80 80 81 82 82 81 81 78 78 81 81 82 82 81 80 80 80 79 79 79 78 78 77 77 78 79 79 76 76 81 83 81 84 82 84 85 83 83 83 82
84 84 82 81 80 81 81 81 79 82 79 81 80 82 81 79 81 81 80 78 78 80 77 78 78 76 76 75 77 80 80 80 78 77 80 81 80 77 77 80 79 80 80
86 84 83 81 80 81 80 82 81 80 79 77 80 79 79 80 81 82 81 80 77 79 78 77 75 75 76 77 78 78 78 80 79 78 78 80 81 81 77 80 83 82 81
89 88 83 80 79 81 80 80 79 78 79 78 77 77 74 76 80 80 80 79 79 80 78 78 77 76 77 78 80 79 77 76 77 77 77 78 77 76 75 81 81 82 81
MSLP
1012.01 1012.28 1012.90 1013.20 1013.55 1013.84 1014.16 1014.35 1014.44 1014.64 1014.88 1014.94 1015.07 1015.32 1015.49 1015.65 1015.91 1016.01 1016.23 1016.43 1016.49 1016.51 1016.66 1016.74 1016.84 1017.04 1017.15 1017.22 1017.38 1017.31 1017.48 1017.69 1017.83 1017.90 1018.08 1018.26 1018.38 1018.59 1018.69 1018.88 1018.98 1018.83 1019.38
1011.54 1012.12 1012.93 1013.42 1013.78 1014.08 1014.35 1014.50 1014.65 1014.89 1015.06 1015.17 1015.34 1015.46 1015.71 1015.90 1015.94 1016.14 1016.31 1016.52 1016.56 1016.63 1016.76 1016.96 1017.06 1017.28 1017.38 1017.48 1017.59 1017.65 1017.75 1017.92 1018.05 1018.15 1018.27 1018.39 1018.71 1018.84 1018.95 1019.16 1019.18 1019.37 1019.65
1011.45 1011.98 1012.71 1013.28 1013.70 1014.11 1014.47 1014.66 1014.74 1014.96 1015.21 1015.42 1015.58 1015.72 1015.96 1016.02 1016.08 1016.27 1016.32 1016.53 1016.75 1016.82 1016.88 1017.04 1017.23 1017.48 1017.67 1017.73 1017.86 1017.92 1018.06 1018.16 1018.24 1018.36 1018.41 1018.30 1018.64 1019.09 1019.14 1019.31 1019.50 1019.67 1019.75
1011.17 1011.72 1012.26 1013.10 1013.56 1013.99 1014.40 1014.76 1015.00 1015.16 1015.35 1015.59 1015.71 1015.84 1016.03 1016.09 1016.17 1016.47 1016.52 1016.77 1017.02 1016.97 1017.11 1017.31 1017.38 1017.59 1017.82 1017.89 1017.94 1018.09 1018.25 1018.38 1018.46 1018.55 1018.31 1018.49 1018.68 1019.32 1019.40 1019.54 1019.67 1019.83 1020.04
1011.39 1011.81 1012.31 1012.94 1013.31 1013.84 1014.28 1014.63 1014.95 1015.26 1015.53 1015.73 1015.90 1016.02 1016.07 1016.19 1016.36 1016.47 1016.63 1016.93 1016.92 1017.19 1017.33 1017.48 1017.57 1017.76 1018.01 1018.14 1018.26 1018.41 1018.42 1018.59 1018.78 1018.76 1018.67 1018.69 1018.84 1019.44 1019.67 1019.79 1020.00 1020.12 1020.17
1011.84 1012.08 1012.84 1013.17 1013.44 1013.88 1014.26 1014.63 1014.92 1015.19 1015.51 1015.81 1015.94 1016.09 1016.21 1016.31 1016.50 1016.64 1016.77 1016.86 1016.99 1017.25 1017.41 1017.65 1017.74 1018.01 1018.15 1018.30 1018.58 1018.65 1018.71 1018.88 1018.98 1018.77 1018.91 1019.21 1019.14 1019.69 1019.95 1020.03 1020.08 1020.30 1020.46
1011.88 1012.29 1012.90 1013.42 1013.69 1014.04 1014.44 1014.72 1014.91 1015.14 1015.39 1015.65 1015.92 1016.10 1016.28 1016.50 1016.65 1016.79 1016.82 1016.93 1017.18 1017.29 1017.55 1017.75 1017.92 1018.15 1018.31 1018.51 1018.70 1018.86 1018.97 1019.07 1018.81 1018.86 1019.07 1019.13 1019.38 1019.89 1020.09 1020.22 1020.32 1020.52 1020.63
1011.77 1012.26 1012.76 1013.48 1013.78 1014.16 1014.60 1014.87 1015.11 1015.29 1015.45 1015.63 1015.81 1016.02 1016.28 1016.51 1016.72 1016.80 1016.92 1017.10 1017.36 1017.56 1017.73 1017.84 1018.10 1018.35 1018.57 1018.62 1018.78 1018.98 1019.12 1019.18 1019.12 1018.98 1019.18 1019.32 1019.76 1020.02 1020.13 1020.32 1020.47 1020.62 1020.77
1011.80 1012.38 1013.02 1013.39 1013.82 1014.21 1014.53 1014.89 1015.20 1015.35 1015.55 1015.74 1015.93 1016.08 1016.31 1016.53 1016.73 1016.88 1017.11 1017.25 1017.43 1017.69 1017.86 1018.00 1018.23 1018.47 1018.65 1018.83 1018.85 1019.06 1019.18 1019.25 1018.95 1018.85 1019.06 1019.31 1019.98 1020.11 1020.24 1020.40 1020.56 1020.70 1020.86
1011.99 1012.28 1012.58 1013.25 1013.70 1014.18 1014.38 1014.68 1014.98 1015.23 1015.48 1015.72 1015.89 1016.07 1016.25 1016.44 1016.70 1016.95 1017.26 1017.38 1017.55 1017.84 1017.98 1018.16 1018.34 1018.57 1018.78 1018.94 1019.12 1019.18 1019.22 1019.25 1018.64 1018.94 1019.08 1019.20 1019.94 1020.09 1020.16 1020.35 1020.54 1020.77 1020.97
1012.04 1012.27 1012.54 1013.03 1013.56 1014.08 1014.40 1014.62 1014.93 1015.15 1015.38 1015.62 1015.78 1015.96 1016.18 1016.10 1016.43 1016.76 1016.96 1017.39 1017.59 1017.85 1018.01 1018.21 1018.40 1018.64 1018.88 1019.07 1019.16 1019.20 1019.26 1018.75 1018.72 1018.85 1018.96 1019.65 1020.07 1020.21 1020.26 1020.36 1020.62 1020.82 1021.02
1011.62 1012.04 1012.46 1012.80 1013.28 1013.83 1014.13 1014.53 1014.82 1014.97 1015.07 1015.23 1015.41 1015.74 1015.81 1016.11 1016.43 1016.62 1016.91 1017.35 1017.45 1017.65 1017.89 1018.14 1018.29 1018.60 1018.86 1018.54 1018.84 1019.17 1018.74 1018.77 1018.80 1018.86 1018.91 1019.65 1019.99 1020.14 1020.16 1020.31 1020.57 1020.81 1020.95
1010.99 1011.77 1012.28 1012.73 1013.08 1013.54 1013.94 1014.48 1014.66 1014.90 1014.92 1015.17 1015.56 1015.73 1015.95 1016.18 1016.47 1016.56 1016.76 1017.00 1017.21 1017.51 1017.69 1018.00 1018.12 1018.19 1018.30 1018.59 1018.69 1018.71 1018.78 1018.86 1018.68 1018.75 1018.82 1019.45 1019.73 1019.91 1020.02 1020.13 1020.39 1020.61 1020.75
1010.80 1011.27 1011.94 1012.61 1013.09 1013.48 1014.00 1014.13 1014.38 1014.48 1014.84 1015.02 1015.24 1015.64 1015.92 1016.09 1016.36 1016.54 1016.68 1016.86 1017.10 1017.40 1017.53 1017.96 1017.75 1017.91 1018.44 1018.71 1018.65 1018.65 1018.72 1018.61 1018.57 1018.64 1018.69 1019.23 1019.40 1019.61 1019.79 1019.93 1020.09 1020.35 1020.57
1010.33 1010.94 1011.62 1012.28 1012.79 1013.21 1013.66 1013.47 1013.86 1014.20 1014.55 1014.82 1015.27 1015.55 1015.58 1015.73 1016.24 1016.29 1016.61 1016.68 1016.78 1016.99 1017.31 1017.63 1017.97 1017.93 1018.12 1018.38 1018.52 1018.61 1018.52 1018.47 1018.57 1018.55 1018.55 1018.94 1019.09 1019.15 1019.33 1019.60 1019.68 1019.95 1020.24
1009.88 1010.46 1011.33 1011.88 1012.35 1012.71 1012.88 1013.69 1013.99 1014.28 1014.73 1015.17 1015.10 1015.33 1015.58 1015.79 1015.94 1016.24 1016.30 1016.40 1016.56 1016.67 1016.88 1017.21 1017.51 1017.75 1017.82 1017.86 1018.12 1018.26 1018.34 1018.31 1018.30 1018.40 1018.26 1018.28 1018.73 1018.81 1018.96 1019.13 1019.38 1019.54 1019.82
1009.29 1009.94 1010.68 1011.42 1011.97 1012.38 1012.71 1013.25 1013.59 1013.87 1014.45 1014.53 1014.70 1014.93 1015.21 1015.57 1015.66 1015.72 1015.85 1016.14 1016.20 1016.52 1016.69 1016.94 1017.30 1017.46 1017.64 1017.68 1017.91 1017.99 1018.07 1018.19 1018.05 1018.10 1018.16 1018.05 1017.97 1018.41 1018.60 1018.80 1019.00 1019.19 1019.38
1008.87 1009.43 1010.25 1010.84 1011.43 1011.98 1012.38 1012.76 1013.06 1013.49 1013.88 1014.17 1014.36 1014.65 1014.94 1015.17 1015.35 1015.52 1015.53 1015.64 1015.79 1016.15 1016.43 1016.60 1017.09 1017.20 1017.38 1017.54 1017.58 1017.71 1017.72 1017.83 1017.86 1017.97 1017.81 1017.85 1017.67 1017.65 1017.91 1018.36 1018.61 1018.80 1018.88
1008.46 1009.10 1009.71 1010.38 1010.90 1011.49 1012.03 1012.35 1012.63 1013.05 1013.43 1013.69 1013.90 1014.17 1014.46 1014.70 1014.87 1015.03 1015.11 1015.22 1015.73 1015.83 1016.14 1016.34 1016.69 1016.96 1016.96 1017.22 1017.35 1017.45 1017.44 1017.51 1017.48 1017.35 1017.45 1017.49 1017.53 1017.56 1017.40 1017.55 1018.02 1018.27 1018.36
1007.91 1008.59 1009.20 1009.80 1010.35 1011.16 1011.72 1012.18 1012.40 1012.70 1012.94 1013.10 1013.32 1013.49 1014.02 1014.36 1014.48 1014.77 1014.77 1015.05 1015.53 1015.65 1015.80 1016.11 1016.31 1016.45 1016.71 1016.86 1016.99 1017.10 1017.14 1017.07 1017.09 1017.22 1017.01 1016.95 1016.98 1017.16 1017.21 1017.32 1017.28 1017.44 1017.82
1007.18 1007.94 1008.51 1009.11 1009.71 1010.53 1011.18 1011.54 1011.82 1011.96 1012.38 1012.77 1012.85 1013.24 1013.46 1013.90 1014.19 1014.45 1014.45 1014.85 1015.07 1015.40 1015.51 1015.78 1015.97 1016.17 1016.23 1016.51 1016.88 1016.60 1016.47 1016.60 1016.61 1016.65 1016.58 1016.64 1016.71 1016.84 1016.96 1017.12 1017.19 1017.26 1017.26
1006.19 1006.87 1007.92 1008.43 1009.01 1009.76 1010.28 1010.83 1011.30 1011.60 1011.92 1012.31 1012.53 1012.88 1013.15 1013.43 1013.72 1014.00 1014.21 1014.28 1014.54 1014.79 1015.10 1015.41 1015.60 1015.70 1015.85 1016.20 1016.11 1016.31 1015.79 1015.74 1015.87 1016.00 1016.25 1016.50 1016.56 1016.56 1016.71 1016.86 1016.99 1017.14 1017.17
1005.00 1005.93 1006.78 1007.54 1008.35 1008.91 1009.46 1010.48 1011.25 1011.74 1011.98 1011.98 1011.97 1012.34 1012.56 1012.93 1013.25 1013.47 1013.57 1013.79 1014.07 1014.37 1014.48 1014.72 1014.93 1015.15 1015.12 1015.60 1015.84 1015.60 1015.46 1015.02 1015.24 1015.65 1015.99 1016.15 1016.39 1016.46 1016.45 1016.76 1016.86 1016.92 1017.00
1003.87 1005.14 1005.92 1006.95 1007.74 1008.46 1008.99 1009.58 1010.18 1010.33 1010.56 1010.86 1011.27 1011.67 1012.06 1012.42 1012.63 1012.86 1012.98 1013.28 1013.64 1013.86 1014.09 1014.23 1014.44 1014.50 1014.82 1014.86 1015.51 1015.59 1015.64 1015.50 1015.07 1015.10 1015.73 1016.01 1016.39 1016.65 1016.79 1016.76 1016.82 1016.79 1016.82
1003.13 1003.61 1005.06 1005.82 1006.90 1007.70 1008.49 1008.72 1009.38 1009.86 1010.33 1010.85 1011.24 1011.51 1011.73 1012.11 1012.37 1012.29 1012.47 1012.66 1013.13 1013.41 1013.67 1013.92 1014.10 1014.16 1014.19 1014.37 1014.71 1014.95 1015.32 1015.50 1015.65 1015.37 1015.01 1015.41 1015.99 1016.24 1016.67 1016.51 1016.26 1016.30 1016.47
1001.84 1002.69 1003.87 1005.21 1005.96 1007.00 1007.78 1008.37 1008.71 1009.21 1009.88 1010.50 1010.77 1011.03 1011.48 1011.57 1011.85 1012.28 1012.18 1012.48 1012.62 1012.86 1013.13 1013.48 1013.85 1013.95 1013.85 1014.02 1014.28 1014.70 1014.93 1015.09 1015.11 1015.42 1015.35 1015.47 1015.71 1016.08 1016.35 1016.21 1016.24 1016.09 1016.30
Wind_Speed
11 14 15 16 17 16 15 15 15 15 15 15 15 15 14 14 14 13 13 11 10 10 11 11 12 11 12 13 11 14 14 13 13 14 14 13 13 12 13 13 11 13 13
18 17 16 16 16 16 16 14 14 15 15 14 14 14 13 13 13 13 12 12 11 11 12 12 12 12 12 12 13 14 14 14 13 14 14 13 11 11 12 12 7 13 12
19 18 18 17 16 16 15 14 14 14 14 13 13 13 13 12 12 11 12 12 11 12 12 11 13 12 12 13 12 13 13 13 12 13 11 8 10 10 10 12 12 11 13
19 18 18 19 18 18 16 15 14 15 14 13 12 12 12 11 11 10 10 11 12 11 11 11 11 12 12 11 12 14 13 13 12 13 8 8 8 11 9 9 12 12 11
17 17 16 19 18 19 17 16 15 14 14 13 12 10 12 11 11 12 11 10 11 11 12 11 12 11 13 10 12 12 11 11 10 8 8 6 5 8 9 9 10 9 9
14 15 16 17 18 18 18 17 16 15 14 13 12 11 9 9 9 8 11 11 11 11 12 11 10 12 11 12 11 11 10 10 10 7 6 8 4 9 8 6 10 9 8
16 14 15 15 16 16 16 16 16 15 15 14 12 11 11 10 10 8 9 9 11 11 11 10 11 12 13 11 11 11 10 9 6 6 6 5 6 8 8 7 9 8 9
16 15 14 15 15 16 16 16 15 14 14 13 12 11 9 8 9 9 9 9 10 10 10 10 11 11 11 12 10 9 8 8 7 5 5 5 6 5 8 8 7 8 8
15 14 11 13 14 17 16 15 15 14 14 12 12 12 12 10 9 8 8 9 9 10 10 9 11 11 11 9 9 8 6 5 5 4 6 5 8 7 8 8 9 7 7
14 14 14 12 12 10 12 15 15 13 13 12 10 10 8 8 10 10 7 6 8 10 10 11 9 10 9 8 7 6 3 3 4 5 4 4 9 9 9 8 9 8 7
12 13 13 13 11 11 11 12 13 15 14 13 12 11 10 7 8 9 7 8 8 10 11 11 11 9 8 7 7 7 4 1 2 4 3 7 9 9 10 8 8 7 9
16 15 14 14 13 13 10 10 11 10 9 9 9 9 7 6 5 5 5 8 9 9 10 11 11 10 9 6 5 6 4 3 3 2 3 8 11 12 12 9 9 10 10
18 14 15 14 13 13 10 7 6 6 6 7 9 8 7 6 5 5 4 5 5 8 6 8 9 8 7 5 6 5 5 5 3 3 2 7 11 14 13 11 11 12 12
17 17 16 15 14 13 8 9 8 8 7 6 8 10 6 5 6 5 4 5 5 4 6 7 4 6 8 8 7 7 7 6 4 3 4 6 8 14 15 13 13 14 13
17 16 16 16 14 13 12 10 8 9 8 8 8 8 7 7 6 5 5 5 5 5 6 6 6 6 7 7 7 7 8 7 7 4 4 5 8 12 15 15 15 16 15
17 17 16 17 16 14 13 10 8 7 7 7 7 8 8 5 6 6 5 6 6 6 6 6 6 6 7 7 8 8 8 7 7 6 5 5 7 9 14 15 14 16 16
17 17 17 17 16 16 15 12 9 9 8 9 9 11 11 7 7 7 6 6 6 7 8 6 6 6 6 7 8 8 8 9 8 7 7 6 5 10 13 15 14 13 15
17 18 17 14 16 16 14 11 9 9 9 8 8 8 10 10 10 8 6 7 6 6 6 6 6 7 7 6 6 7 7 7 8 9 8 7 6 6 9 14 13 13 15
18 17 17 17 17 16 14 11 11 10 9 9 8 8 9 11 11 9 7 7 7 6 7 7 6 7 7 7 7 7 6 6 7 7 9 9 8 7 6 7 11 14 16
18 17 17 16 16 15 10 9 9 8 9 8 9 8 10 9 10 9 8 8 6 7 7 7 9 8 8 7 7 6 6 6 6 7 8 8 7 8 8 8 7 8 12
18 18 18 17 16 13 11 11 10 11 9 8 8 10 11 9 10 10 8 8 8 8 9 9 8 9 8 7 5 6 7 8 8 7 7 7 8 8 7 7 6 5 6
20 20 18 18 17 14 11 10 7 8 7 7 8 9 10 11 11 11 11 10 11 9 10 11 10 7 7 8 7 3 7 8 9 9 7 7 8 6 7 6 5 6 6
21 20 19 18 17 16 15 10 6 5 3 5 8 9 11 12 11 12 12 10 9 9 9 11 12 13 9 8 10 5 5 7 2 5 9 6 6 5 5 5 6 6 6
20 18 17 18 17 16 16 13 14 11 11 8 6 7 8 10 12 13 13 11 10 9 10 10 10 11 10 10 7 8 5 2 4 4 4 5 4 4 3 4 4 5 4
19 22 17 18 17 16 16 14 13 12 7 3 4 7 7 7 11 12 12 12 12 10 10 10 11 11 10 9 9 7 10 7 4 4 4 4 4 4 4 5 4 4 4
21 18 17 19 18 17 17 17 16 15 11 6 6 6 4 3 5 10 10 11 10 9 9 9 10 11 10 10 9 9 7 6 8 7 7 7 6 3 3 4 5 4 3
Wind_Direction
159 154 157 149 151 142 138 136 130 125 125 123 127 133 139 143 148 141 137 136 137 133 118 117 125 124 119 126 120 127 133 126 122 117 114 110 112 116 109 114 138 112 111
153 158 156 152 155 148 144 140 135 132 129 129 132 134 138 141 141 146 147 150 146 136 125 126 125 128 119 126 127 128 128 130 127 124 119 112 113 122 121 121 125 113 125
153 153 158 157 157 155 147 142 137 131 133 138 140 143 148 151 150 154 147 142 141 133 129 126 126 132 130 132 134 135 133 133 129 128 125 122 129 130 131 132 127 134 127
155 158 159 160 160 158 156 150 144 143 141 143 144 152 145 144 144 160 154 148 139 136 131 128 128 129 138 144 139 136 134 133 134 131 146 130 131 138 135 126 137 137 126
157 161 159 161 161 160 158 154 152 150 146 149 151 157 142 142 149 151 154 155 139 142 133 136 139 136 140 134 127 134 142 132 125 157 139 133 130 125 126 137 140 138 152
160 163 156 163 161 162 161 160 159 155 153 152 152 150 147 145 150 156 151 153 140 146 134 150 147 143 139 137 142 144 143 143 144 131 137 122 147 128 149 158 132 127 135
164 167 166 171 164 162 163 165 163 161 159 156 158 159 158 157 155 154 152 143 140 139 141 149 147 154 150 149 150 147 154 152 149 140 147 146 141 159 158 181 143 155 156
162 166 170 175 167 163 169 168 167 167 164 161 161 158 158 160 160 156 151 151 141 147 148 163 153 144 146 155 160 164 178 193 188 174 166 171 129 202 167 185 163 166 161
163 166 176 179 176 172 173 172 173 174 168 166 170 168 170 168 158 169 163 161 160 155 157 168 158 154 157 163 172 168 191 160 245 204 194 182 164 192 179 181 191 184 182
170 171 175 181 183 183 177 176 177 178 173 173 172 163 175 164 167 170 164 190 166 170 166 170 168 165 174 185 186 178 194 164 178 168 189 173 176 194 211 191 210 185 201
176 181 179 179 180 180 183 183 182 185 176 179 177 171 170 179 175 172 163 173 194 181 171 174 173 171 184 200 224 197 219 228 188 190 203 132 195 206 226 195 211 217 218
184 187 184 181 182 184 186 185 186 185 185 188 176 178 187 175 174 191 182 192 189 192 188 185 176 176 191 197 198 225 226 231 235 213 236 166 209 215 219 214 203 221 226
189 186 189 185 183 187 185 184 187 194 196 183 185 185 184 183 189 205 194 194 201 198 190 197 180 198 190 206 204 215 221 235 240 231 181 207 213 221 223 215 209 218 225
189 193 185 187 186 186 186 190 191 195 193 199 197 191 186 195 199 211 210 203 204 199 190 195 203 195 195 210 214 218 228 242 236 240 224 223 228 222 223 220 214 223 226
191 193 188 185 189 183 194 198 200 201 197 203 202 201 197 200 202 214 220 207 207 200 201 192 201 206 204 210 214 223 231 238 247 253 258 205 251 230 217 223 215 219 224
195 193 186 192 189 186 204 196 196 206 206 206 208 210 217 194 207 203 222 215 214 214 204 198 202 205 219 211 217 221 229 233 240 255 246 251 243 245 220 223 225 218 225
198 191 188 193 192 194 199 202 200 200 205 211 212 207 210 208 216 221 224 224 216 210 216 205 207 214 224 221 226 229 235 234 247 246 246 251 242 226 222 224 231 232 226
199 192 191 190 196 196 200 200 203 207 207 214 212 215 209 211 213 222 221 220 205 202 209 209 206 214 222 225 227 224 227 232 240 251 250 256 256 263 211 225 234 236 235
199 196 191 191 195 197 199 206 206 204 209 211 214 213 209 211 212 215 219 223 204 209 211 221 213 211 215 222 228 225 223 229 241 247 246 248 247 254 255 222 229 235 239
197 198 195 190 193 193 194 202 209 207 211 210 213 214 215 217 208 207 216 214 210 222 214 214 225 220 223 229 232 240 235 226 230 236 239 241 244 248 246 251 255 246 246
193 199 197 193 190 182 190 198 204 209 207 211 216 211 210 211 211 210 213 213 213 217 229 222 226 222 219 219 218 234 233 231 232 234 235 243 246 245 253 251 257 256 255
196 197 193 198 187 189 190 197 204 205 213 212 210 214 212 211 209 214 220 216 215 223 220 224 222 221 223 196 213 240 240 226 228 231 230 242 251 252 249 249 258 254 261
198 192 195 193 190 191 192 185 174 165 189 197 206 209 211 218 218 219 222 221 216 216 219 218 217 219 220 199 202 216 205 232 212 197 222 233 237 235 244 244 247 253 264
195 193 196 190 190 195 187 188 195 205 209 214 209 211 205 210 221 222 223 218 220 216 219 223 221 220 213 204 205 219 244 330 223 211 197 206 202 212 236 253 243 246 262
182 194 188 183 187 188 190 192 192 204 204 158 207 216 206 217 230 228 221 218 216 212 216 225 217 214 210 205 206 202 219 224 229 264 250 190 214 213 215 240 247 248 242
194 192 180 184 183 183 188 196 190 196 193 196 198 193 181 195 226 237 225 216 209 210 210 216 217 213 211 214 209 208 201 206 226 235 252 261 276 239 249 244 235 239 246